Starlink 5243

operational
NORAD ID: 54167 Int'l Des: 2022-141 Owner: SPXS Country: US Constellation: starlink
LEOCIRCULAR

About Starlink 5243

Description loading...

Live Position

Loading 3D Globe...

Upcoming Passes

Altitude History

Altitude vs Time

uPlot chart will show altitude changes over time

Two-Line Element Set

1 54167U 22141L 25303.54969981 .00000380 00000-0 41977-4 0 9990
2 54167 53.2162 238.1230 0001388 88.6730 271.4421 15.08844361166076
Epoch: Oct 30, 2025 • Age: 20 hours

Current Status

Altitude 556.6 km
Velocity 7.58 km/s
Sub-Earth Point -46.83°S, 1.64°W
Launch Date Oct 28, 2022
Age 3 years
Type internet

Technical Details

Classification Payload
Mass 305.00 kg
Dry Mass 290.00 kg
Total Mass 305.00 kg
Length 0.20 m
Diameter 2.80 m
Span 9.00 m
Shape Box + pan
Manufacturer SPXS
Bus Type Starlink
Phase Status In Orbit
Owner/State SPXS/US

Large Constellations

Loading constellations...